TimeEST,TemperatureF,Dew PointF,Humidity,Sea Level PressureIn,VisibilityMPH,Wind Direction,Wind SpeedMPH,Gust SpeedMPH,PrecipitationIn,Events,Conditions,WindDirDegrees,DateUTC
12:52 AM,37.9,28.9,70,30.12,10.0,Calm,Calm,-,N/A,,Clear,0,2012-11-10 05:52:00
1:52 AM,36.0,28.0,73,30.12,10.0,Calm,Calm,-,N/A,,Clear,0,2012-11-10 06:52:00
2:52 AM,37.0,28.0,70,30.14,10.0,West,4.6,-,N/A,,Clear,280,2012-11-10 07:52:00
3:52 AM,37.9,30.0,73,30.16,10.0,West,3.5,-,N/A,,Clear,280,2012-11-10 08:52:00
4:52 AM,37.9,30.9,76,30.16,10.0,West,4.6,-,N/A,,Clear,280,2012-11-10 09:52:00
5:52 AM,37.0,32.0,82,30.18,10.0,Calm,Calm,-,N/A,,Clear,0,2012-11-10 10:52:00
6:52 AM,39.0,34.0,82,30.22,10.0,West,3.5,-,N/A,,Clear,270,2012-11-10 11:52:00
7:52 AM,45.0,37.0,74,30.24,10.0,West,4.6,-,N/A,,Clear,270,2012-11-10 12:52:00
8:52 AM,48.0,36.0,63,30.25,10.0,WNW,9.2,19.6,N/A,,Clear,300,2012-11-10 13:52:00
9:52 AM,48.9,35.1,59,30.26,10.0,Variable,6.9,19.6,N/A,,Partly Cloudy,0,2012-11-10 14:52:00
10:52 AM,50.0,35.1,57,30.27,10.0,NNW,10.4,18.4,N/A,,Partly Cloudy,340,2012-11-10 15:52:00
11:52 AM,50.0,35.1,57,30.28,10.0,NW,8.1,17.3,N/A,,Clear,320,2012-11-10 16:52:00
12:52 PM,50.0,34.0,54,30.29,10.0,Variable,6.9,-,N/A,,Clear,0,2012-11-10 17:52:00
1:52 PM,50.0,35.1,57,30.30,10.0,North,4.6,-,N/A,,Clear,350,2012-11-10 18:52:00
2:52 PM,48.9,36.0,61,30.32,10.0,Variable,5.8,-,N/A,,Clear,0,2012-11-10 19:52:00
3:52 PM,48.0,37.0,66,30.35,10.0,Calm,Calm,-,N/A,,Partly Cloudy,0,2012-11-10 20:52:00
4:52 PM,42.1,36.0,79,30.38,10.0,Calm,Calm,-,N/A,,Clear,0,2012-11-10 21:52:00
5:52 PM,39.0,35.1,86,30.41,10.0,Calm,Calm,-,N/A,,Clear,0,2012-11-10 22:52:00
6:52 PM,39.0,36.0,89,30.43,10.0,Calm,Calm,-,N/A,,Clear,0,2012-11-10 23:52:00
7:52 PM,39.0,35.1,86,30.44,10.0,Calm,Calm,-,N/A,,Clear,0,2012-11-11 00:52:00
8:52 PM,37.9,35.1,89,30.46,10.0,Calm,Calm,-,N/A,,Clear,0,2012-11-11 01:52:00
9:52 PM,37.9,36.0,93,30.47,10.0,Calm,Calm,-,N/A,,Clear,0,2012-11-11 02:52:00
10:52 PM,37.0,34.0,89,30.48,9.0,Calm,Calm,-,N/A,,Clear,0,2012-11-11 03:52:00
11:52 PM,35.1,33.1,92,30.48,10.0,Calm,Calm,-,N/A,,Clear,0,2012-11-11 04:52:00